Location: Ladrillo (historical)
(32.8195°N, 117.2231°W)
Time: 00:06:48
(UTC+00:00)

Courier 1B - Pass Details

Date: 11 March 2021
Orbit: 963 x 1209 km, 28.3° (Epoch: 15 April)

Event Time Altitude Azimuth Distance (km) Brightness Sun altitude
Rises 10:35:38 0° 218° (SW) 3,929 - -43.1°
Reaches altitude 10° 10:39:05 10° 204° (SSW) 2,926 - -42.5°
Maximum altitude 10:44:26 23° 155° (SSE) 2,069 - -41.5°
Exits shadow 10:47:28 17° 122° (ESE) 2,336 9.7 -40.9°
Drops below altitude 10° 10:49:34 10° 106° (ESE) 2,796 10.3 -40.5°
Sets 10:52:47 0° 92° (E) 3,712 11.2 -39.9°
